STARLINK-2687 (48466 NORAD) Tracking and Keplerian Element Data

This shows tracking and keplerian element data for the satellite.

Feedback or suggestion? Click here.




ElementValue
Catalog48466
NameSTARLINK-2687
Epoch Orbit366
Epoch Day214.91667824
Epoch Year2021
RAAN172.2813
Inclination53.0752
Eccentricity0.0002001
Argument of Perigee84.151
Mean Anonmoly214.6719
Mean Motion15.06416285
Decay Rate-2.51E-06
L11 48466U 21040AQ 21214.91667824 -.00000251 00000-0 20915-5 0 9999
L22 48466 53.0752 172.2813 0002001 84.1510 214.6719 15.06416285 3661

Live tracking and technical data element details for STARLINK-2687 (NORAD 48466). STARLINK-2687 can be tracked NOW for your location showing map with azimuth and elevation plus other details from your city location.

Track the satellite on the map from your city or location and see movement details for azimuth, elevation, latitude, longitude, range, height, and movement on the map or in text.







IsCatalogInMostPopularTable: catalog: 48466, numindb: 24
Update: records affected: 1



GetName: 48466 STARLINK-2687

Hit Count: updated at: Tue, 03 Aug 2021 21:18:54 GMT